HST 1 20580U 90037B 25176.74750148 .00004031 00000-0 14691-3 0 9993 2 20580 28.4689 346.8889 0002147 178.5189 181.5412 15.25396764733994 ISS (ZARYA) 1 25544U 98067A 25177.22389621 .00008071 00000-0 14796-3 0 9991 2 25544 51.6358 262.2903 0002177 292.8641 67.2118 15.50247662516569 CXO 1 25867U 99040B 25180.01489709 .00000406 00000-0 00000-0 0 9994 2 25867 49.8035 129.0801 8406114 309.7498 0.1403 0.37805167 15982